TimeMST,TemperatureF,Dew PointF,Humidity,Sea Level PressureIn,VisibilityMPH,Wind Direction,Wind SpeedMPH,Gust SpeedMPH,PrecipitationIn,Events,Conditions,WindDirDegrees,DateUTC
12:53 AM,8.1,3.9,83,29.99,10.0,ESE,3.5,-,N/A,,Clear,110,2012-12-19 07:53:00
1:53 AM,9.0,3.0,77,29.98,10.0,Calm,Calm,-,N/A,,Clear,0,2012-12-19 08:53:00
2:53 AM,7.0,1.9,80,30.01,10.0,Calm,Calm,-,N/A,,Clear,0,2012-12-19 09:53:00
3:53 AM,5.0,-0.0,80,30.04,10.0,Calm,Calm,-,N/A,,Clear,0,2012-12-19 10:53:00
4:53 AM,3.9,-0.9,80,30.07,10.0,Calm,Calm,-,N/A,,Clear,0,2012-12-19 11:53:00
5:53 AM,1.9,-2.0,83,30.11,10.0,Calm,Calm,-,N/A,,Clear,0,2012-12-19 12:53:00
6:53 AM,-0.0,-4.0,83,30.16,10.0,Calm,Calm,-,N/A,,Clear,0,2012-12-19 13:53:00
7:53 AM,-0.0,-5.1,79,30.22,10.0,ESE,3.5,-,N/A,,Clear,110,2012-12-19 14:53:00
8:53 AM,3.0,-0.9,84,30.23,10.0,Calm,Calm,-,N/A,,Clear,0,2012-12-19 15:53:00
9:53 AM,9.0,3.0,77,30.25,10.0,Calm,Calm,-,N/A,,Clear,0,2012-12-19 16:53:00
10:53 AM,14.0,5.0,67,30.24,10.0,Calm,Calm,-,N/A,,Clear,0,2012-12-19 17:53:00
11:53 AM,17.1,6.1,62,30.23,10.0,Calm,Calm,-,N/A,,Clear,0,2012-12-19 18:53:00
12:53 PM,23.0,6.1,48,30.20,10.0,Calm,Calm,-,N/A,,Clear,0,2012-12-19 19:53:00
1:53 PM,24.1,5.0,44,30.20,10.0,SE,4.6,-,N/A,,Clear,140,2012-12-19 20:53:00
2:53 PM,25.0,3.0,39,30.21,10.0,SSE,4.6,-,N/A,,Clear,160,2012-12-19 21:53:00
3:53 PM,24.1,3.0,40,30.22,10.0,South,5.8,-,N/A,,Clear,190,2012-12-19 22:53:00
4:53 PM,21.0,1.9,44,30.25,10.0,SSE,5.8,-,N/A,,Clear,160,2012-12-19 23:53:00
5:53 PM,17.1,1.9,52,30.28,10.0,ESE,3.5,-,N/A,,Clear,110,2012-12-20 00:53:00
6:53 PM,15.1,1.9,56,30.31,10.0,ESE,9.2,-,N/A,,Clear,110,2012-12-20 01:53:00
7:53 PM,12.0,1.9,64,30.35,10.0,ESE,5.8,-,N/A,,Clear,120,2012-12-20 02:53:00
8:53 PM,12.0,1.9,64,30.34,10.0,ESE,5.8,-,N/A,,Clear,110,2012-12-20 03:53:00
9:53 PM,10.9,1.0,64,30.34,10.0,SE,3.5,-,N/A,,Clear,130,2012-12-20 04:53:00
10:53 PM,9.0,1.0,70,30.35,10.0,South,4.6,-,N/A,,Clear,180,2012-12-20 05:53:00
11:53 PM,7.0,-0.0,73,30.37,10.0,North,-9999.0,-,N/A,,Clear,0,2012-12-20 06:53:00